sat.trackr.live / text

‹ back to catalog

CHUANGXIN 1 (CX-1)

NORAD 28058 · 2003-049B

PAYLOAD ACTIVE UNKNOWN

§ Identity

Operator
Country
PRC
Launch date
2003-10-21
Launch site
TAISC
Launch vehicle
Mass (kg)
RCS (m²)
0.53

External: N2YO · Heavens-Above · Gunter

§ Orbital elements

Epoch: 2026-05-25T04:09:42.763104Z

Period
99.41 min
Inclination
98.5104°
Eccentricity
0.0011292
Mean motion
14.48571544 rev/d
Perigee alt
722.3 km
Apogee alt
738.3 km
Semi-major
7,108.5 km
B*
5.7998e-5
RAAN
44.0729°
Arg perigee
251.4599°
Mean anomaly
108.5367°
Rev number
19,294

§ Raw data

CHUANGXIN 1 (CX-1)1 28058U 03049B   26145.17341161  .00000173  00000+0  57998-4 0  99932 28058  98.5104  44.0729 0011292 251.4599 108.5367 14.48571544192946

JSON: /api/v1/satellites/28058 · /tle

For live sub-satellite position, see the globe view (requires WebGL).

§ Visibility from observer

Set your observer location to see the next 7 days of passes ≥ 10°. The values pass through the URL so the page stays shareable.

No JS? Fill the form by hand. The geolocation button needs JavaScript.